DLH309 LICC-EDDF

Flight info

Callsign DLH309
Flight time N/A
Altitude 34000
Route BUDIN DCT DIRED DCT SUMIR DCT UNIMI L12 MOGTI Q163 OLASO/N0448F320 Q163 HAFUN/N0405F240 Q163 ETASA T163 SPESA
Aircraft A321/M-SDE2E3FGIJ1LORWXYZ/HB1

Departure

Time 2026-04-29 15:34
Airport Catania-Fontanarossa Airport (LICC)

Arrival

Time N/A
Airport Frankfurt Main Airport (EDDF)
Time Latitude Longitude Altitude Speed Heading
2026-04-29 15:08 37.46960 15.06471 51 ft 0 kts 19°
2026-04-29 15:26 37.46944 15.06465 51 ft 4 kts 19°
2026-04-29 15:26 37.46919 15.06453 48 ft 4 kts 19°
2026-04-29 15:27 37.46893 15.06442 51 ft 4 kts 19°
2026-04-29 15:27 37.46874 15.06435 47 ft 3 kts
2026-04-29 15:27 37.46849 15.06435 49 ft 4 kts 333°
2026-04-29 15:27 37.46832 15.06457 51 ft 4 kts 284°
2026-04-29 15:28 37.46831 15.06479 51 ft 1 kts 264°
2026-04-29 15:28 37.46831 15.06483 51 ft 0 kts 264°
2026-04-29 15:30 37.46830 15.06469 51 ft 7 kts 264°
2026-04-29 15:30 37.46820 15.06352 49 ft 17 kts 264°
2026-04-29 15:30 37.46807 15.06195 47 ft 19 kts 264°
2026-04-29 15:30 37.46793 15.06026 48 ft 22 kts 264°
2026-04-29 15:31 37.46774 15.05823 51 ft 24 kts 262°
2026-04-29 15:31 37.46756 15.05614 51 ft 24 kts 264°
2026-04-29 15:31 37.46741 15.05399 51 ft 24 kts 265°
2026-04-29 15:31 37.46681 15.05268 51 ft 14 kts 223°
2026-04-29 15:32 37.46672 15.05257 51 ft 0 kts 223°
2026-04-29 15:32 37.46656 15.05238 51 ft 6 kts 223°
2026-04-29 15:33 37.46623 15.05202 51 ft 7 kts 213°
2026-04-29 15:33 37.46570 15.05209 48 ft 8 kts 141°
2026-04-29 15:33 37.46565 15.05275 51 ft 8 kts 85°
2026-04-29 15:33 37.46579 15.05469 50 ft 53 kts 84°
2026-04-29 15:34 37.46643 15.06210 51 ft 117 kts 84°
2026-04-29 15:34 37.46754 15.07459 241 ft 152 kts 83°
2026-04-29 15:34 37.46858 15.08772 944 ft 150 kts 81°
2026-04-29 15:34 37.47022 15.10084 1528 ft 155 kts 82°
2026-04-29 15:35 37.47214 15.11509 1761 ft 176 kts 82°
2026-04-29 15:35 37.47429 15.13067 1932 ft 191 kts 82°
2026-04-29 15:35 37.47669 15.14796 2060 ft 212 kts 82°
2026-04-29 15:35 37.47937 15.16716 2175 ft 235 kts 81°
2026-04-29 15:36 37.48231 15.18821 2545 ft 249 kts 81°
2026-04-29 15:36 37.48534 15.20989 3160 ft 254 kts 81°
2026-04-29 15:36 37.48846 15.23221 3823 ft 257 kts 80°
2026-04-29 15:36 37.49154 15.25417 4491 ft 259 kts 80°
2026-04-29 15:37 37.49679 15.27591 5146 ft 262 kts 64°
2026-04-29 15:37 37.50712 15.29500 5672 ft 271 kts 46°
2026-04-29 15:37 37.52224 15.30963 6187 ft 278 kts 31°
2026-04-29 15:37 37.53885 15.32234 6797 ft 281 kts 31°
2026-04-29 15:38 37.55561 15.33535 7394 ft 284 kts 31°
2026-04-29 15:38 37.57250 15.34855 8009 ft 287 kts 31°
2026-04-29 15:38 37.58956 15.36192 8612 ft 290 kts 30°
2026-04-29 15:38 37.60678 15.37543 9236 ft 293 kts 30°
2026-04-29 15:39 37.62415 15.38909 9860 ft 295 kts 30°
2026-04-29 15:39 37.64176 15.40294 10306 ft 305 kts 30°
2026-04-29 15:39 37.66039 15.41755 10427 ft 325 kts 30°
2026-04-29 15:39 37.68037 15.43247 10542 ft 342 kts 24°
2026-04-29 15:40 37.70315 15.44304 10673 ft 357 kts 11°
2026-04-29 15:40 37.72806 15.44683 10929 ft 365 kts 358°
2026-04-29 15:40 37.75330 15.44327 11387 ft 366 kts 345°
2026-04-29 15:40 37.77744 15.43301 11900 ft 367 kts 336°
2026-04-29 15:41 37.80123 15.42114 12442 ft 369 kts 336°
2026-04-29 15:41 37.82517 15.40916 12973 ft 371 kts 336°
2026-04-29 15:41 37.84928 15.39708 13506 ft 374 kts 336°
2026-04-29 15:41 37.87349 15.38497 14012 ft 376 kts 335°
2026-04-29 15:42 37.89791 15.37274 14482 ft 378 kts 336°
2026-04-29 15:42 37.92241 15.36045 14958 ft 380 kts 336°
2026-04-29 15:42 37.94709 15.34806 15418 ft 383 kts 336°
2026-04-29 15:42 37.97189 15.33561 15913 ft 384 kts 336°
2026-04-29 15:43 37.99681 15.32308 16361 ft 387 kts 336°
2026-04-29 15:43 38.02197 15.31040 16782 ft 390 kts 336°
2026-04-29 15:43 38.04731 15.29762 17217 ft 393 kts 336°
2026-04-29 15:43 38.07281 15.28476 17653 ft 396 kts 336°
2026-04-29 15:44 38.09849 15.27183 18064 ft 398 kts 335°
2026-04-29 15:44 38.12432 15.25879 18464 ft 401 kts 336°
2026-04-29 15:44 38.15032 15.24565 18798 ft 403 kts 336°
2026-04-29 15:44 38.17645 15.23243 19152 ft 405 kts 336°
2026-04-29 15:45 38.20271 15.21915 19519 ft 407 kts 336°
2026-04-29 15:45 38.22908 15.20577 19866 ft 409 kts 336°
2026-04-29 15:45 38.25558 15.19231 20235 ft 411 kts 336°
2026-04-29 15:45 38.28221 15.17881 20601 ft 413 kts 336°
2026-04-29 15:46 38.30895 15.16529 20962 ft 415 kts 336°
2026-04-29 15:46 38.33583 15.15171 21316 ft 416 kts 335°
2026-04-29 15:46 38.36279 15.13803 21666 ft 418 kts 335°
2026-04-29 15:46 38.38953 15.12445 22017 ft 420 kts 335°
2026-04-29 15:47 38.41673 15.11064 22375 ft 422 kts 335°
2026-04-29 15:47 38.44403 15.09672 22708 ft 424 kts 335°
2026-04-29 15:47 38.47147 15.08267 23042 ft 426 kts 335°
2026-04-29 15:47 38.49900 15.06855 23358 ft 428 kts 335°
2026-04-29 15:48 38.52673 15.05436 23664 ft 430 kts 335°
2026-04-29 15:48 38.55456 15.04016 23935 ft 432 kts 335°
2026-04-29 15:48 38.58253 15.02590 24222 ft 433 kts 335°
2026-04-29 15:48 38.61052 15.01159 24516 ft 434 kts 335°
2026-04-29 15:49 38.63858 14.99722 24843 ft 434 kts 335°
2026-04-29 15:49 38.66666 14.98283 25136 ft 435 kts 335°
2026-04-29 15:49 38.69487 14.96833 25424 ft 437 kts 335°
2026-04-29 15:49 38.72309 14.95381 25698 ft 438 kts 335°
2026-04-29 15:50 38.75145 14.93920 25974 ft 439 kts 335°
2026-04-29 15:50 38.77983 14.92457 26246 ft 441 kts 335°
2026-04-29 15:50 38.80835 14.90987 26465 ft 443 kts 335°
2026-04-29 15:50 38.83706 14.89507 26696 ft 445 kts 335°
2026-04-29 15:51 38.86580 14.88024 26956 ft 446 kts 335°
2026-04-29 15:51 38.89468 14.86535 27198 ft 448 kts 335°
2026-04-29 15:51 38.92361 14.85046 27424 ft 449 kts 335°
2026-04-29 15:51 38.95261 14.83549 27641 ft 450 kts 335°
2026-04-29 15:52 38.98172 14.82042 27849 ft 451 kts 335°
2026-04-29 15:52 39.01085 14.80529 28047 ft 452 kts 335°
2026-04-29 15:52 39.04007 14.79008 28274 ft 453 kts 335°
2026-04-29 15:52 39.06920 14.77489 28553 ft 452 kts 335°
2026-04-29 15:53 39.09830 14.75973 28853 ft 451 kts 335°
2026-04-29 15:53 39.12743 14.74463 29067 ft 452 kts 335°
2026-04-29 15:53 39.15658 14.72950 29314 ft 451 kts 335°
2026-04-29 15:53 39.18566 14.71433 29580 ft 451 kts 335°
2026-04-29 15:54 39.21432 14.69937 29841 ft 450 kts 335°
2026-04-29 15:54 39.24374 14.68406 30099 ft 450 kts 335°
2026-04-29 15:54 39.27274 14.66894 30331 ft 449 kts 335°
2026-04-29 15:54 39.30131 14.65403 30554 ft 448 kts 335°
2026-04-29 15:55 39.33018 14.63887 30799 ft 448 kts 335°
2026-04-29 15:55 39.35900 14.62371 31027 ft 446 kts 335°
2026-04-29 15:55 39.38770 14.60861 31258 ft 446 kts 335°
2026-04-29 15:55 39.41642 14.59355 31485 ft 445 kts 335°
2026-04-29 15:56 39.44508 14.57857 31706 ft 444 kts 334°
2026-04-29 15:56 39.47368 14.56357 31917 ft 443 kts 334°
2026-04-29 15:56 39.50227 14.54855 32144 ft 443 kts 334°
2026-04-29 15:56 39.53079 14.53355 32359 ft 442 kts 334°
2026-04-29 15:57 39.55925 14.51852 32581 ft 441 kts 334°
2026-04-29 15:57 39.57857 14.50861 32732 ft 442 kts 336°
2026-04-29 15:57 39.60753 14.49521 32927 ft 443 kts 338°
2026-04-29 15:57 39.63684 14.48295 33126 ft 443 kts 339°
2026-04-29 15:58 39.66630 14.47125 33323 ft 443 kts 339°
2026-04-29 15:58 39.69538 14.45982 33522 ft 442 kts 339°
2026-04-29 15:58 39.72475 14.44806 33720 ft 442 kts 339°
2026-04-29 15:58 39.75401 14.43604 33926 ft 441 kts 338°
2026-04-29 15:59 39.78322 14.42374 34023 ft 441 kts 338°
2026-04-29 15:59 39.84148 14.39877 34037 ft 441 kts 338°
2026-04-29 16:00 39.89970 14.37385 34036 ft 440 kts 338°
2026-04-29 16:00 39.95795 14.34900 34041 ft 440 kts 338°
2026-04-29 16:01 40.01620 14.32424 34046 ft 440 kts 338°
2026-04-29 16:01 40.07445 14.29938 34043 ft 441 kts 338°
2026-04-29 16:02 40.13277 14.27435 34048 ft 441 kts 338°
2026-04-29 16:02 40.19112 14.24923 34047 ft 442 kts 338°
2026-04-29 16:03 40.24953 14.22414 34054 ft 442 kts 338°
2026-04-29 16:03 40.30796 14.19901 34064 ft 442 kts 338°
2026-04-29 16:04 40.36645 14.17379 34061 ft 443 kts 338°
2026-04-29 16:04 40.42498 14.14858 34067 ft 443 kts 338°
2026-04-29 16:05 40.48350 14.12327 34071 ft 443 kts 338°
2026-04-29 16:05 40.54200 14.09785 34065 ft 443 kts 338°
2026-04-29 16:06 40.60052 14.07240 34075 ft 443 kts 338°
2026-04-29 16:06 40.65864 14.04708 34071 ft 443 kts 338°
2026-04-29 16:07 40.71752 14.02135 34083 ft 443 kts 338°
2026-04-29 16:07 40.77606 13.99579 34074 ft 443 kts 338°
2026-04-29 16:08 40.83420 13.97040 34074 ft 443 kts 338°
2026-04-29 16:08 40.89305 13.94460 34070 ft 443 kts 338°
2026-04-29 16:09 40.95152 13.91887 34075 ft 443 kts 338°
2026-04-29 16:09 41.00994 13.89310 34072 ft 443 kts 338°
2026-04-29 16:10 41.06800 13.86752 34071 ft 443 kts 338°
2026-04-29 16:10 41.12646 13.84174 34067 ft 443 kts 338°
2026-04-29 16:11 41.18493 13.81590 34075 ft 443 kts 338°
2026-04-29 16:11 41.24337 13.79000 34066 ft 443 kts 338°
2026-04-29 16:12 41.30179 13.76400 34063 ft 443 kts 338°
2026-04-29 16:12 41.36022 13.73801 34061 ft 443 kts 338°
2026-04-29 16:13 41.41861 13.71196 34068 ft 443 kts 338°
2026-04-29 16:13 41.47699 13.68585 34064 ft 442 kts 338°
2026-04-29 16:14 41.53535 13.65979 34068 ft 442 kts 338°
2026-04-29 16:14 41.59374 13.63365 34085 ft 442 kts 338°
2026-04-29 16:15 41.65207 13.60744 34080 ft 442 kts 338°
2026-04-29 16:15 41.71033 13.58114 34075 ft 442 kts 338°
2026-04-29 16:16 41.76854 13.55481 34075 ft 441 kts 338°
2026-04-29 16:16 41.82667 13.52853 34077 ft 441 kts 338°
2026-04-29 16:17 41.88481 13.50219 34073 ft 441 kts 338°
2026-04-29 16:17 41.94293 13.47584 34067 ft 440 kts 338°
2026-04-29 16:18 42.00102 13.44951 34072 ft 441 kts 338°
2026-04-29 16:18 42.05915 13.42307 34070 ft 441 kts 338°
2026-04-29 16:19 42.11729 13.39651 34070 ft 441 kts 338°
2026-04-29 16:19 42.17537 13.36990 34065 ft 441 kts 338°
2026-04-29 16:20 42.23350 13.34331 34074 ft 441 kts 338°
2026-04-29 16:20 42.29160 13.31660 34082 ft 441 kts 338°
2026-04-29 16:21 42.34965 13.28987 34073 ft 441 kts 338°
2026-04-29 16:21 42.40730 13.26328 34073 ft 441 kts 338°
2026-04-29 16:22 42.46574 13.23630 34095 ft 440 kts 338°
2026-04-29 16:22 42.52330 13.20965 34077 ft 440 kts 338°
2026-04-29 16:23 42.58127 13.18278 34074 ft 440 kts 338°
2026-04-29 16:23 42.63923 13.15586 34072 ft 440 kts 338°
2026-04-29 16:24 42.69716 13.12886 34073 ft 440 kts 338°
2026-04-29 16:24 42.75507 13.10192 34072 ft 440 kts 338°
2026-04-29 16:25 42.81297 13.07493 34074 ft 440 kts 337°
2026-04-29 16:25 42.87088 13.04784 34064 ft 440 kts 338°
2026-04-29 16:26 42.92875 13.02066 34069 ft 439 kts 337°
2026-04-29 16:26 42.98653 12.99353 34065 ft 439 kts 337°
2026-04-29 16:27 43.04412 12.96643 34059 ft 438 kts 337°
2026-04-29 16:27 43.10184 12.93916 34063 ft 438 kts 337°
2026-04-29 16:28 43.15947 12.91184 34061 ft 438 kts 337°
2026-04-29 16:28 43.21706 12.88461 34059 ft 438 kts 337°
2026-04-29 16:29 43.27467 12.85721 34051 ft 438 kts 337°
2026-04-29 16:29 43.33224 12.82983 34057 ft 437 kts 337°
2026-04-29 16:30 43.38966 12.80245 34058 ft 436 kts 337°
2026-04-29 16:30 43.44697 12.77505 34052 ft 436 kts 337°
2026-04-29 16:31 43.50429 12.74766 34063 ft 436 kts 337°
2026-04-29 16:31 43.56157 12.72019 34078 ft 436 kts 337°
2026-04-29 16:32 43.61879 12.69277 34073 ft 435 kts 337°
2026-04-29 16:32 43.67591 12.66533 34066 ft 435 kts 337°
2026-04-29 16:33 43.76151 12.62392 34090 ft 434 kts 337°
2026-04-29 16:33 43.81844 12.59629 34087 ft 434 kts 337°
2026-04-29 16:34 43.87539 12.56869 34080 ft 433 kts 337°
2026-04-29 16:34 43.93229 12.54111 34090 ft 433 kts 337°
2026-04-29 16:35 43.98908 12.51353 34088 ft 432 kts 337°
2026-04-29 16:35 44.04579 12.48582 34084 ft 432 kts 337°
2026-04-29 16:36 44.10244 12.45812 34080 ft 431 kts 337°
2026-04-29 16:36 44.15907 12.43042 34105 ft 431 kts 337°
2026-04-29 16:37 44.21565 12.40273 34098 ft 431 kts 337°
2026-04-29 16:37 44.26263 12.37961 34104 ft 431 kts 337°
2026-04-29 16:38 44.32863 12.34704 34114 ft 430 kts 337°
2026-04-29 16:38 44.38499 12.31923 34120 ft 429 kts 337°
2026-04-29 16:39 44.44114 12.29140 34114 ft 427 kts 337°
2026-04-29 16:39 44.49678 12.26378 34110 ft 427 kts 337°
2026-04-29 16:40 44.55272 12.23597 34131 ft 426 kts 337°
2026-04-29 16:40 44.60857 12.20825 34123 ft 426 kts 337°
2026-04-29 16:41 44.66438 12.18049 34117 ft 425 kts 336°
2026-04-29 16:41 44.72012 12.15256 34122 ft 425 kts 336°
2026-04-29 16:42 44.77572 12.12454 34133 ft 424 kts 336°
2026-04-29 16:42 44.82230 12.10116 34128 ft 424 kts 336°
2026-04-29 16:43 44.87745 12.07351 34138 ft 423 kts 336°
2026-04-29 16:43 44.93288 12.04562 34133 ft 423 kts 336°
2026-04-29 16:44 44.98827 12.01759 34139 ft 422 kts 336°
2026-04-29 16:44 45.04356 11.98958 34152 ft 422 kts 336°
2026-04-29 16:45 45.09883 11.96151 34142 ft 422 kts 336°
2026-04-29 16:45 45.15405 11.93349 34151 ft 421 kts 336°
2026-04-29 16:46 45.20922 11.90553 34165 ft 421 kts 336°
2026-04-29 16:46 45.26431 11.87741 34157 ft 420 kts 336°
2026-04-29 16:47 45.31930 11.84922 34148 ft 420 kts 336°
2026-04-29 16:47 45.37425 11.82100 34163 ft 420 kts 335°
2026-04-29 16:48 45.42918 11.79285 34151 ft 419 kts 335°
2026-04-29 16:48 45.48408 11.76473 34146 ft 419 kts 335°
2026-04-29 16:49 45.53890 11.73657 34126 ft 419 kts 335°
2026-04-29 16:49 45.59363 11.70826 34153 ft 418 kts 335°
2026-04-29 16:50 45.64811 11.67984 34146 ft 416 kts 335°
2026-04-29 16:50 45.70252 11.65158 34149 ft 416 kts 335°
2026-04-29 16:51 45.75684 11.62345 34153 ft 415 kts 335°
2026-04-29 16:51 45.81111 11.59526 34166 ft 414 kts 335°
2026-04-29 16:52 45.86523 11.56694 34174 ft 413 kts 334°
2026-04-29 16:52 45.91921 11.53868 34170 ft 413 kts 334°
2026-04-29 16:53 45.97277 11.51057 34162 ft 412 kts 334°
2026-04-29 16:53 46.02647 11.48240 34160 ft 409 kts 334°
2026-04-29 16:54 46.07984 11.45445 34160 ft 408 kts 334°
2026-04-29 16:54 46.13311 11.42641 34157 ft 408 kts 334°
2026-04-29 16:55 46.18638 11.39829 34157 ft 408 kts 334°
2026-04-29 16:55 46.23969 11.37008 34160 ft 408 kts 334°
2026-04-29 16:56 46.29313 11.34239 34158 ft 409 kts 335°
2026-04-29 16:56 46.34717 11.31640 34158 ft 409 kts 336°
2026-04-29 16:57 46.40124 11.29071 34151 ft 408 kts 335°
2026-04-29 16:57 46.45516 11.26472 34165 ft 408 kts 335°
2026-04-29 16:58 46.50891 11.23843 34157 ft 407 kts 335°
2026-04-29 16:58 46.56258 11.21199 34158 ft 408 kts 335°
2026-04-29 16:59 46.61632 11.18567 34165 ft 407 kts 335°
2026-04-29 16:59 46.66992 11.15945 34163 ft 404 kts 335°
2026-04-29 17:00 46.72315 11.13326 34152 ft 404 kts 334°
2026-04-29 17:00 46.77637 11.10687 34162 ft 404 kts 335°
2026-04-29 17:01 46.82965 11.08053 34164 ft 404 kts 335°
2026-04-29 17:01 46.88183 11.05113 34166 ft 400 kts 329°
2026-04-29 17:02 46.93233 11.01713 34168 ft 399 kts 329°
2026-04-29 17:02 46.98296 10.98343 34156 ft 400 kts 330°
2026-04-29 17:03 47.03381 10.95044 34177 ft 400 kts 330°
2026-04-29 17:03 47.08448 10.91760 34183 ft 398 kts 330°
2026-04-29 17:04 47.13495 10.88458 34174 ft 396 kts 330°
2026-04-29 17:04 47.18544 10.85137 34177 ft 398 kts 330°
2026-04-29 17:05 47.23595 10.81816 34187 ft 397 kts 330°
2026-04-29 17:05 47.28634 10.78496 34171 ft 396 kts 330°
2026-04-29 17:06 47.33666 10.75160 34194 ft 397 kts 330°
2026-04-29 17:06 47.38705 10.71811 34192 ft 398 kts 330°
2026-04-29 17:07 47.43829 10.68658 34191 ft 400 kts 332°
2026-04-29 17:07 47.49028 10.65716 34192 ft 399 kts 333°
2026-04-29 17:08 47.54212 10.62761 34198 ft 401 kts 333°
2026-04-29 17:08 47.59416 10.59714 34180 ft 403 kts 333°
2026-04-29 17:09 47.64647 10.56634 34181 ft 405 kts 333°
2026-04-29 17:09 47.69891 10.53535 34175 ft 406 kts 333°
2026-04-29 17:10 47.75155 10.50428 34205 ft 408 kts 335°
2026-04-29 17:10 47.80442 10.47313 34188 ft 410 kts 335°
2026-04-29 17:11 47.85761 10.44170 34184 ft 412 kts 335°
2026-04-29 17:11 47.91097 10.41009 34188 ft 413 kts 335°
2026-04-29 17:12 47.96436 10.37826 34197 ft 414 kts 335°
2026-04-29 17:12 48.00886 10.35169 34201 ft 415 kts 336°
2026-04-29 17:13 48.07165 10.31412 33856 ft 414 kts 336°
2026-04-29 17:13 48.09799 10.29829 33137 ft 414 kts 336°
2026-04-29 17:13 48.12479 10.28219 32455 ft 415 kts 337°
2026-04-29 17:14 48.13742 10.27461 32284 ft 414 kts 337°
2026-04-29 17:14 48.15914 10.26160 32159 ft 418 kts 337°
2026-04-29 17:14 48.21216 10.22527 32205 ft 421 kts 328°
2026-04-29 17:15 48.25873 10.17141 32198 ft 424 kts 322°
2026-04-29 17:15 48.30461 10.11560 32202 ft 424 kts 322°
2026-04-29 17:16 48.35037 10.05990 31497 ft 423 kts 322°
2026-04-29 17:16 48.37324 10.03208 30583 ft 423 kts 323°
2026-04-29 17:16 48.39620 10.00414 29218 ft 426 kts 323°
2026-04-29 17:17 48.41935 9.97595 27887 ft 429 kts 323°
2026-04-29 17:17 48.44245 9.94775 26333 ft 427 kts 323°
2026-04-29 17:17 48.46557 9.91944 25061 ft 429 kts 323°
2026-04-29 17:17 48.48839 9.89139 24819 ft 415 kts 323°
2026-04-29 17:18 48.51034 9.86438 24512 ft 403 kts 323°
2026-04-29 17:18 48.53195 9.83785 23977 ft 398 kts 323°
2026-04-29 17:18 48.55328 9.81166 23407 ft 393 kts 323°
2026-04-29 17:18 48.57432 9.78582 22864 ft 386 kts 323°
2026-04-29 17:19 48.59496 9.76039 22368 ft 380 kts 323°
2026-04-29 17:19 48.61523 9.73510 21994 ft 373 kts 322°
2026-04-29 17:19 48.63516 9.70931 21903 ft 386 kts 322°
2026-04-29 17:19 48.65563 9.68231 21724 ft 393 kts 321°
2026-04-29 17:20 48.67642 9.65464 21546 ft 406 kts 321°
2026-04-29 17:20 48.69788 9.62603 21354 ft 414 kts 321°
2026-04-29 17:20 48.71953 9.59717 21145 ft 416 kts 321°
2026-04-29 17:20 48.74127 9.56826 20961 ft 416 kts 321°
2026-04-29 17:21 48.76302 9.53942 20768 ft 415 kts 322°
2026-04-29 17:21 48.78474 9.51065 20579 ft 414 kts 321°
2026-04-29 17:21 48.80643 9.48190 20388 ft 413 kts 321°
2026-04-29 17:21 48.82779 9.45361 20195 ft 412 kts 321°
2026-04-29 17:22 48.84936 9.42502 19999 ft 411 kts 322°
2026-04-29 17:22 48.87089 9.39644 19808 ft 411 kts 321°
2026-04-29 17:22 48.89234 9.36785 19626 ft 410 kts 321°
2026-04-29 17:22 48.91451 9.34095 19439 ft 406 kts 329°
2026-04-29 17:23 48.93908 9.32026 19248 ft 402 kts 336°
2026-04-29 17:23 48.96406 9.30139 19053 ft 400 kts 336°
2026-04-29 17:23 48.98898 9.28256 18877 ft 399 kts 336°
2026-04-29 17:23 49.01380 9.26374 18675 ft 398 kts 336°
2026-04-29 17:24 49.03857 9.24491 18499 ft 398 kts 336°
2026-04-29 17:24 49.06329 9.22605 18297 ft 397 kts 336°
2026-04-29 17:24 49.08793 9.20720 18122 ft 396 kts 336°
2026-04-29 17:24 49.11254 9.18836 17933 ft 395 kts 336°
2026-04-29 17:25 49.13709 9.16957 17753 ft 394 kts 336°
2026-04-29 17:25 49.16164 9.15095 17563 ft 393 kts 338°
2026-04-29 17:25 49.18731 9.13768 17393 ft 388 kts 349°
2026-04-29 17:25 49.21390 9.13280 17209 ft 384 kts
2026-04-29 17:26 49.24050 9.13528 17032 ft 383 kts
2026-04-29 17:26 49.26698 9.13906 16855 ft 382 kts
2026-04-29 17:26 49.29347 9.14286 16675 ft 381 kts
2026-04-29 17:26 49.31983 9.14667 16496 ft 380 kts
2026-04-29 17:27 49.34614 9.15048 16327 ft 380 kts
2026-04-29 17:27 49.37245 9.15426 16149 ft 379 kts
2026-04-29 17:27 49.39871 9.15799 15972 ft 378 kts
2026-04-29 17:27 49.42486 9.16165 15799 ft 378 kts
2026-04-29 17:28 49.44219 9.16408 15683 ft 377 kts
2026-04-29 17:28 49.46830 9.16776 15519 ft 377 kts
2026-04-29 17:28 49.50283 9.17269 15275 ft 376 kts
2026-04-29 17:28 49.52882 9.17646 15109 ft 375 kts
2026-04-29 17:29 49.55481 9.17983 14913 ft 375 kts
2026-04-29 17:29 49.58064 9.17509 14670 ft 376 kts 348°
2026-04-29 17:29 49.60598 9.16529 14432 ft 375 kts 347°
2026-04-29 17:29 49.62308 9.15858 14273 ft 375 kts 347°
2026-04-29 17:30 49.64831 9.14859 14035 ft 374 kts 347°
2026-04-29 17:30 49.67346 9.13859 13768 ft 372 kts 347°
2026-04-29 17:30 49.69849 9.12862 13495 ft 371 kts 348°
2026-04-29 17:30 49.72315 9.11878 13241 ft 371 kts 347°
2026-04-29 17:31 49.74809 9.10880 12977 ft 369 kts 347°
2026-04-29 17:31 49.77325 9.09875 12718 ft 368 kts 347°
2026-04-29 17:31 49.79671 9.08454 12466 ft 371 kts 332°
2026-04-29 17:31 49.81672 9.05914 12191 ft 376 kts 314°
2026-04-29 17:32 49.83287 9.02703 11943 ft 379 kts 310°
2026-04-29 17:32 49.84871 8.99440 11687 ft 379 kts 309°
2026-04-29 17:32 49.86444 8.96172 11439 ft 378 kts 309°
2026-04-29 17:32 49.88012 8.92909 11191 ft 377 kts 309°
2026-04-29 17:33 49.89581 8.89660 10944 ft 376 kts 309°
2026-04-29 17:33 49.91147 8.86416 10710 ft 375 kts 309°
2026-04-29 17:33 49.92705 8.83181 10458 ft 374 kts 309°
2026-04-29 17:33 49.94249 8.79967 10222 ft 365 kts 309°
2026-04-29 17:34 49.95516 8.76650 10070 ft 350 kts 297°
2026-04-29 17:34 49.96304 8.73158 9946 ft 336 kts 286°
2026-04-29 17:34 49.96640 8.69636 9803 ft 324 kts 275°
2026-04-29 17:34 49.96565 8.66208 9671 ft 312 kts 264°
2026-04-29 17:35 49.95647 8.60902 9451 ft 305 kts 250°
2026-04-29 17:35 49.94650 8.56790 9274 ft 303 kts 250°
2026-04-29 17:35 49.93911 8.53722 9144 ft 303 kts 250°
2026-04-29 17:36 49.93174 8.50661 8991 ft 302 kts 250°
2026-04-29 17:36 49.92442 8.47621 8593 ft 300 kts 250°
2026-04-29 17:36 49.91713 8.44592 8199 ft 299 kts 249°
2026-04-29 17:36 49.90987 8.41584 7834 ft 297 kts 249°
2026-04-29 17:37 49.90266 8.38596 7494 ft 293 kts 249°
2026-04-29 17:37 49.89554 8.35652 6953 ft 291 kts 249°